Location: O'Brien
(30.0517°N, 82.9900°W)
Time: 01:11:02
(UTC-04:00)

Tiangong 2 - Visible Passes

Search period start: 20 July 2018 00:00
Search period end: 30 July 2018 00:00
Orbit: 386 x 394 km, 42.8° (Epoch: 19 July)

Date Brightness Start Highest point End Pass type
(mag) Time Alt. Az. Time Alt. Az. Time Alt. Az.
20 Jul 4.4 23:15:23 10° NW 23:16:01 14° NNW 23:16:01 14° NNW visible
21 Jul 3.4 22:18:02 10° NNW 22:20:16 17° NNE 22:20:44 17° NNE visible
22 Jul 3.8 21:20:49 10° NNW 21:22:19 13° NNE 21:23:50 10° NE visible
22 Jul 3.8 22:56:33 10° NW 22:57:47 21° NW 22:57:47 21° NW visible
23 Jul 2.5 21:59:02 10° NW 22:01:53 29° NNE 22:02:32 26° NE visible
24 Jul 3.3 21:01:39 10° NNW 21:04:00 19° NNE 21:06:20 10° ENE visible
24 Jul 3.0 22:37:55 10° WNW 22:39:40 29° WNW 22:39:40 29° WNW visible
25 Jul 1.3 21:40:12 10° NW 21:43:21 61° NNE 21:44:31 33° E visible
26 Jul 3.0 22:19:39 10° W 22:21:45 23° WSW 22:21:45 23° WSW visible
27 Jul 1.5 21:21:35 10° WNW 21:24:41 54° SW 21:26:43 19° SE visible
28 Jul 3.8 22:02:39 10° WSW 22:03:29 11° SW 22:04:06 10° SSW visible
29 Jul 3.1 21:03:21 10° W 21:05:54 22° SW 21:08:26 10° SSE visible
